[[{"header":{"parameterUnit":"m.s-1","parameterCategory":1,"la1":30.2991,"la2":30.254,"lo1":-89.0895,"lo2":-89.0444,"dy":0.0017,"dx":0.0017,"nx":28,"ny":28,"refTime":"2023-09-13T09:00:00:Z","depth":0,"parameterNumber":2,"parameterNumberName":"U-component_of_WINDS"},"data":[0,0,0,0,0,0,0,0,0,0,0,0,0,0,0,0,0,0,0,0,0,0,0,0,0,0,0,0,0,0,0,0,0,0,0,0,0,0,0,0,0,0,0,0,0,0,0,0,0,0,0,0,0,0,0,0,0,0,-1.0086,-1.0086,0,-1.0118,-1.0119,-1.0119,-1.0072,-1.0071,-1.0069,-1.0068,-1.0102,-1.0104,-1.0107,0,0,0,0,0,0,0,0,0,0,0,0,0,-0.9984,-0.9987,-1.0086,-1.0086,-1.0087,-1.0118,-1.0119,-1.0119,-1.0073,-1.0071,-1.0069,-1.0067,-1.0101,-1.0104,-1.0107,0,0,0,0,0,0,0,0,0,0,0,0,0,-1.0024,-0.9987,-1.0086,-1.0067,-1.0066,-1.0118,-1.0119,-1.0119,-1.0073,-1.0071,-1.0068,-1.0066,-1.01,-1.0104,-1.0107,-1.018,0,0,-1.0119,-1.012,0,0,0,0,0,0,0,0,-1.0022,-1.0028,-1.007,-1.0069,-1.0067,-1.0089,-1.0095,-1.0139,-1.0074,-1.007,-1.0068,-1.0065,-1.01,-1.0103,-1.0115,-1.0181,-1.0183,-1.0119,-1.0121,-1.0123,-1.0124,0,0,0,0,0,0,0,-1.0019,-1.0026,-1.0099,-1.007,-1.0069,-1.0058,-1.006,-1.0103,-1.0099,-1.0071,-1.0067,-1.0072,-1.0099,-1.0111,-1.0115,-1.0183,-1.0119,-1.0122,-1.0124,-1.0126,-1.0309,-1.0312,0,0,0,0,0,0,-1.0018,-1.0024,-1.0098,-1.01,-1.0038,-1.0061,-1.0065,-1.0084,-1.0098,-1.0098,-1.0074,-1.0069,-1.0106,-1.0111,-1.0116,-1.0201,-1.0123,-1.0126,-1.0128,-1.0307,-1.031,-1.0313,0,0,0,0,0,0,-1.0016,-1.0025,-1.0096,-1.0061,-1.0069,-1.0066,-1.0088,-1.0086,-1.0099,-1.01,-1.0099,-1.0088,-1.0105,-1.0111,-1.0164,-1.0202,-1.0128,-1.0131,-1.0303,-1.0308,-1.0311,-1.0372,0,0,0,0,0,0,-1.0014,-1.0025,-1.0052,-1.0062,-1.0071,-1.0144,-1.0091,-1.0089,-1.0105,-1.01,-1.0113,-1.0113,-1.0103,-1.0159,-1.0168,-1.0206,-1.0134,-1.03,-1.0305,-1.031,-1.0367,-1.0378,-1.0387,0,0,0,0,0,-1.001,-1.0069,-1.0054,-1.0063,-1.0105,-1.0146,-1.0151,-1.0138,-1.0109,-1.0136,-1.0137,-1.0113,-1.0196,-1.0164,-1.0174,-1.0214,-1.0298,-1.0304,-1.031,-1.0362,-1.0376,-1.0387,0,0,0,0,0,0,-1.0065,-1.007,-1.0053,-1.0117,-1.0131,-1.0138,-1.0172,-1.0153,-1.0176,-1.0171,-1.0154,-1.0157,-1.0213,-1.0219,-1.0183,-1.0284,-1.0242,-1.025,-1.0279,-1.0291,-1.0301,-1.0299,-1.0137,0,0,0,0,0,-1.0084,-1.0116,-1.0119,-1.0174,-1.0182,-1.0176,-1.0193,-1.0182,-1.0196,-1.0202,-1.0207,-1.0222,-1.0251,-1.0271,-1.0299,-1.0367,-1.0369,-1.0399,-1.0409,-1.0417,-1.0425,-1.0461,-1.0474,-1.0332,-1.0332,-1.0332,0,0,-1.0124,-1.0131,-1.0152,-1.0185,-1.0195,-1.0229,-1.0182,-1.022,-1.0245,-1.0208,-1.0258,-1.0262,-1.0278,-1.0338,-1.0365,-1.0344,-1.0464,-1.0425,-1.0432,-1.0435,-1.0468,-1.0482,-1.0494,-1.0337,-1.0336,-1.0335,0,0,-1.0215,-1.0223,-1.027,-1.0281,-1.0296,-1.0291,-1.0302,-1.0312,-1.0313,-1.0362,-1.0336,-1.0365,-1.0416,-1.0428,-1.0441,-1.0535,-1.0514,-1.0545,-1.0598,-1.0633,-1.0645,-1.0654,-1.0688,-1.07,-1.0552,-1.0552,-1.0552,0,-1.0264,-1.0313,-1.0297,-1.0337,-1.0352,-1.0319,-1.0367,-1.0378,-1.0401,-1.0413,-1.0389,-1.0452,-1.046,-1.0523,-1.0545,-1.0557,-1.0569,-1.0544,-1.0644,-1.0654,-1.0663,-1.0695,-1.0707,-1.0556,-1.0555,-1.0555,-1.0555,0,-1.0372,-1.0407,-1.0443,-1.0466,-1.0485,-1.0529,-1.0519,-1.054,-1.0526,-1.0524,-1.0575,-1.0583,-1.0611,-1.0625,-1.0613,-1.0686,-1.0673,-1.0647,-1.0605,-1.068,-1.071,-1.0722,-1.0561,-1.056,-1.0559,-1.0558,0,0,-1.05,-1.0512,-1.0526,-1.0535,-1.0549,-1.0575,-1.0617,-1.0644,-1.0662,-1.0679,-1.0714,-1.0757,-1.0733,-1.0747,-1.0736,-1.0767,-1.084,-1.0737,-1.0737,-1.0756,-1.0922,-1.0942,-1.0956,-1.0826,-1.0828,-1.083,-1.092,0,-1.0591,-1.0663,-1.0648,-1.0719,-1.075,-1.0719,-1.0755,-1.0767,-1.0766,-1.0793,-1.0791,-1.0822,-1.0788,-1.0796,-1.0825,-1.0825,-1.0874,-1.0818,-1.0858,-1.086,-1.0856,-1.0972,-1.0993,-1.1078,-1.0932,-1.0934,-1.0935,0,-1.0707,-1.0728,-1.0801,-1.0808,-1.0821,-1.0854,-1.0877,-1.0903,-1.0916,-1.0912,-1.0928,-1.091,-1.0951,-1.0908,-1.0964,-1.0927,-1.0942,-1.0944,-1.0947,-1.0951,-1.0903,-1.0979,-1.1105,-1.1118,-1.0953,-1.0952,-1.0951,0,-1.0793,-1.0839,-1.0889,-1.0898,-1.0908,-1.0932,-1.0937,-1.0947,-1.0964,-1.0984,-1.0994,-1.1019,-1.1033,-1.1052,-1.1042,-1.1011,-1.11,-1.1055,-1.1099,-1.1099,-1.112,-1.1119,-1.1251,-1.1128,-1.1128,-1.1128,-1.1128,0,-1.0897,-1.0943,-1.0927,-1.0958,-1.1009,-1.0991,-1.1042,-1.1043,-1.1053,-1.1083,-1.1057,-1.1086,-1.107,-1.1097,-1.1089,-1.1137,-1.1143,-1.1142,-1.1139,-1.1145,-1.1145,-1.1155,-1.1149,-1.1131,-1.1131,-1.113,-1.1129,0,-1.1003,-1.0994,-1.1046,-1.1051,-1.1053,-1.109,-1.1094,-1.1122,-1.1118,-1.1157,-1.1165,-1.1159,-1.119,-1.118,-1.1214,-1.1208,-1.1269,-1.1259,-1.1265,-1.1263,-1.1307,-1.1303,-1.145,-1.1469,-1.1334,-1.1335,-1.1336,0,-1.107,-1.1105,-1.1113,-1.1131,-1.1138,-1.1167,-1.1184,-1.1168,-1.1186,-1.1203,-1.1229,-1.1258,-1.128,-1.1331,-1.133,-1.1355,-1.1345,-1.1395,-1.1349,-1.1353,-1.1346,-1.1345,-1.1348,-1.1405,-1.1406,-1.1408,-1.1409,0,-1.119,-1.1184,-1.1209,-1.1232,-1.1252,-1.127,-1.1285,-1.1301,-1.1286,-1.1308,-1.1339,-1.1356,-1.139,-1.1419,-1.1441,-1.1447,-1.1426,-1.1423,-1.1434,-1.1441,-1.1443,-1.1443,-1.1291,-1.142,-1.1419,-1.1418,-1.1417,-1.1417,-1.1279,-1.1308,-1.1318,-1.1346,-1.1356,-1.137,-1.1397,-1.1396,-1.1421,-1.1447,-1.1436,-1.1472,-1.1482,-1.1511,-1.1519,-1.1547,-1.1528,-1.1544,-1.1548,-1.1553,-1.1559,-1.1438,-1.1551,-1.155,-1.155,-1.155,-1.155,0,-1.1398,-1.1403,-1.1429,-1.145,-1.1472,-1.1449,-1.1464,-1.1485,-1.1516,-1.1528,-1.155,-1.1585,-1.1612,-1.1613,-1.1638,-1.166,-1.1651,-1.1667,-1.1666,-1.1668,-1.1574,-1.1562,-1.1674,-1.1674,-1.1674,-1.1674,-1.1674,-1.1674,-1.1463,-1.1511,-1.1505,-1.1557,-1.1561,-1.1596,-1.1607,-1.162,-1.1629,-1.1669,-1.1692,-1.1691,-1.1698,-1.1724,-1.1747,-1.1747,-1.1758,-1.1778,-1.1774,-1.1687,-1.1674,-1.1663,-1.1651,-1.178,-1.178,-1.1865,-1.1865,-1.1866]},{"header":{"parameterUnit":"m.s-1","parameterCategory":1,"la1":30.2991,"la2":30.254,"lo1":-89.0895,"lo2":-89.0444,"dy":0.0017,"dx":0.0017,"nx":28,"ny":28,"refTime":"2023-09-13T09:00:00:Z","depth":0,"parameterNumber":3,"parameterNumberName":"V-component_of_WINDS"},"data":[0,0,0,0,0,0,0,0,0,0,0,0,0,0,0,0,0,0,0,0,0,0,0,0,0,0,0,0,0,0,0,0,0,0,0,0,0,0,0,0,0,0,0,0,0,0,0,0,0,0,0,0,0,0,0,0,0,0,-4.7175,-4.7175,0,-4.721,-4.721,-4.721,-4.7163,-4.7162,-4.716,-4.7158,-4.7191,-4.7193,-4.7196,0,0,0,0,0,0,0,0,0,0,0,0,0,-4.7064,-4.7066,-4.7175,-4.7175,-4.7176,-4.7209,-4.721,-4.721,-4.7164,-4.7162,-4.716,-4.7158,-4.719,-4.7193,-4.7196,0,0,0,0,0,0,0,0,0,0,0,0,0,-4.7106,-4.7067,-4.7175,-4.7156,-4.7155,-4.7209,-4.721,-4.721,-4.7164,-4.7162,-4.7159,-4.7157,-4.7189,-4.7193,-4.7196,-4.7269,0,0,-4.7207,-4.7209,0,0,0,0,0,0,0,0,-4.7104,-4.7111,-4.7159,-4.7158,-4.7156,-4.718,-4.7183,-4.723,-4.7165,-4.7161,-4.7158,-4.7155,-4.7189,-4.7192,-4.7204,-4.727,-4.7272,-4.7208,-4.721,-4.7211,-4.7212,0,0,0,0,0,0,0,-4.7101,-4.7109,-4.7188,-4.7159,-4.7158,-4.7145,-4.7148,-4.7191,-4.7188,-4.7161,-4.7157,-4.7162,-4.7188,-4.7201,-4.7205,-4.7272,-4.7208,-4.7211,-4.7213,-4.7214,-4.7397,-4.74,0,0,0,0,0,0,-4.7101,-4.7107,-4.7187,-4.7189,-4.7124,-4.7149,-4.7153,-4.7175,-4.7188,-4.7187,-4.7165,-4.716,-4.7196,-4.7201,-4.7206,-4.729,-4.7211,-4.7215,-4.7217,-4.7395,-4.7398,-4.7401,0,0,0,0,0,0,-4.7099,-4.7109,-4.7186,-4.7147,-4.7156,-4.7154,-4.7179,-4.7177,-4.719,-4.7191,-4.7189,-4.7179,-4.7194,-4.7201,-4.7253,-4.729,-4.7216,-4.722,-4.7392,-4.7396,-4.7399,-4.746,0,0,0,0,0,0,-4.7096,-4.7108,-4.7137,-4.7148,-4.7158,-4.7234,-4.7181,-4.7179,-4.7197,-4.7191,-4.7204,-4.7203,-4.7193,-4.7248,-4.7257,-4.7294,-4.7223,-4.7388,-4.7393,-4.7398,-4.7455,-4.7466,-4.7475,0,0,0,0,0,-4.7092,-4.7152,-4.7138,-4.7148,-4.7194,-4.7237,-4.7242,-4.723,-4.72,-4.7228,-4.7228,-4.7203,-4.7285,-4.7254,-4.7263,-4.7302,-4.7386,-4.7392,-4.7398,-4.745,-4.7464,-4.7475,0,0,0,0,0,0,-4.7144,-4.7153,-4.7138,-4.7204,-4.722,-4.7229,-4.7263,-4.7244,-4.7268,-4.7262,-4.7244,-4.7248,-4.7304,-4.7308,-4.7273,-4.7372,-4.733,-4.7339,-4.7367,-4.738,-4.739,-4.7387,-4.7226,0,0,0,0,0,-4.7164,-4.7199,-4.7204,-4.7262,-4.7271,-4.7266,-4.7284,-4.7273,-4.7288,-4.7294,-4.7298,-4.7313,-4.7342,-4.7361,-4.7388,-4.7456,-4.7456,-4.7487,-4.7497,-4.7505,-4.7512,-4.7546,-4.7559,-4.7421,-4.7421,-4.742,0,0,-4.7204,-4.7213,-4.7236,-4.7273,-4.7283,-4.7318,-4.7272,-4.7311,-4.7336,-4.73,-4.7349,-4.7353,-4.7368,-4.7428,-4.7455,-4.7434,-4.7551,-4.7513,-4.752,-4.7522,-4.7554,-4.7567,-4.7578,-4.7425,-4.7424,-4.7423,0,0,-4.7294,-4.7306,-4.7354,-4.7366,-4.7383,-4.738,-4.7391,-4.7403,-4.7404,-4.7454,-4.7427,-4.7456,-4.7507,-4.7518,-4.753,-4.7624,-4.7601,-4.7633,-4.7686,-4.7719,-4.773,-4.774,-4.7771,-4.7783,-4.764,-4.7641,-4.7641,0,-4.7342,-4.7394,-4.7381,-4.7422,-4.7438,-4.7408,-4.7455,-4.7467,-4.7492,-4.7503,-4.7479,-4.7542,-4.755,-4.7611,-4.7634,-4.7646,-4.7657,-4.7631,-4.773,-4.7739,-4.7748,-4.7778,-4.779,-4.7644,-4.7644,-4.7643,-4.7643,0,-4.745,-4.7487,-4.7524,-4.7549,-4.7569,-4.7613,-4.7605,-4.7627,-4.7614,-4.7613,-4.7663,-4.7672,-4.7699,-4.7713,-4.7701,-4.7772,-4.7758,-4.7733,-4.769,-4.7765,-4.7792,-4.7804,-4.765,-4.7648,-4.7647,-4.7646,0,0,-4.7574,-4.7592,-4.7605,-4.7615,-4.7632,-4.7659,-4.7701,-4.7729,-4.7747,-4.7765,-4.7798,-4.7842,-4.7818,-4.7832,-4.7821,-4.785,-4.7921,-4.7821,-4.7821,-4.7837,-4.7998,-4.8016,-4.8029,-4.7907,-4.7909,-4.7911,-4.7996,0,-4.7663,-4.7737,-4.7726,-4.7796,-4.7828,-4.78,-4.7836,-4.7849,-4.7848,-4.7875,-4.7874,-4.7904,-4.7871,-4.7879,-4.7907,-4.7907,-4.7953,-4.7901,-4.7936,-4.7937,-4.7931,-4.8044,-4.8063,-4.8143,-4.8007,-4.8009,-4.801,0,-4.7777,-4.7799,-4.7873,-4.7883,-4.7896,-4.7929,-4.7952,-4.7978,-4.7992,-4.7989,-4.8005,-4.7988,-4.8028,-4.7986,-4.804,-4.8005,-4.8018,-4.802,-4.8023,-4.8024,-4.7977,-4.8046,-4.8168,-4.818,-4.8027,-4.8026,-4.8025,0,-4.7857,-4.7906,-4.7956,-4.7966,-4.7979,-4.8002,-4.8009,-4.802,-4.8037,-4.8057,-4.8067,-4.8092,-4.8105,-4.8123,-4.8113,-4.8084,-4.8168,-4.8126,-4.8165,-4.8165,-4.8183,-4.8181,-4.8307,-4.8195,-4.8195,-4.8195,-4.8194,0,-4.7957,-4.8002,-4.7992,-4.8022,-4.8072,-4.8058,-4.8107,-4.811,-4.812,-4.8149,-4.8126,-4.8154,-4.8139,-4.8166,-4.8158,-4.8202,-4.8209,-4.8206,-4.8203,-4.8207,-4.8208,-4.8215,-4.8208,-4.8198,-4.8197,-4.8197,-4.8196,0,-4.8054,-4.805,-4.8102,-4.811,-4.8113,-4.8149,-4.8155,-4.8183,-4.8181,-4.8218,-4.8226,-4.8222,-4.8251,-4.8243,-4.8275,-4.8269,-4.8325,-4.8316,-4.8321,-4.8318,-4.8357,-4.8353,-4.849,-4.8507,-4.8386,-4.8387,-4.8388,0,-4.8117,-4.8152,-4.8164,-4.8182,-4.819,-4.822,-4.8237,-4.8224,-4.8243,-4.826,-4.8285,-4.8313,-4.8334,-4.8382,-4.8381,-4.8405,-4.8395,-4.8442,-4.8399,-4.8401,-4.8394,-4.8391,-4.8393,-4.845,-4.8451,-4.8452,-4.8453,0,-4.8229,-4.8224,-4.825,-4.8274,-4.8295,-4.8314,-4.833,-4.8346,-4.8335,-4.8356,-4.8386,-4.8403,-4.8435,-4.8462,-4.8484,-4.8489,-4.8469,-4.8467,-4.8477,-4.8481,-4.8481,-4.8479,-4.8342,-4.8464,-4.8463,-4.8462,-4.8461,-4.8461,-4.8309,-4.8338,-4.835,-4.8379,-4.839,-4.8406,-4.8431,-4.8432,-4.8457,-4.8483,-4.8474,-4.8508,-4.8519,-4.8547,-4.8555,-4.858,-4.8562,-4.8577,-4.8581,-4.8584,-4.8588,-4.8479,-4.8584,-4.8584,-4.8584,-4.8583,-4.8583,0,-4.8418,-4.8424,-4.8451,-4.8474,-4.8496,-4.8477,-4.8493,-4.8513,-4.8543,-4.8556,-4.8577,-4.8611,-4.8637,-4.8638,-4.8662,-4.8682,-4.8673,-4.8689,-4.8686,-4.8687,-4.8604,-4.8592,-4.8695,-4.8695,-4.8695,-4.8695,-4.8695,-4.8695,-4.8476,-4.8523,-4.852,-4.8571,-4.8576,-4.861,-4.8621,-4.8634,-4.8644,-4.8683,-4.8705,-4.8706,-4.8713,-4.8737,-4.876,-4.8759,-4.8768,-4.8787,-4.8782,-4.8704,-4.8693,-4.8682,-4.8671,-4.8789,-4.8789,-4.8863,-4.8864,-4.8864]}]]